Pittsburgh, PA

1:57 AM EDT on April 21, 2018 (GMT -0400)
Pittsburgh International

Weather History for KPIT - May, 2014

Change the Weather History Date:

Friday, May 30, 2014

  Actual Average Record
Temperature  
Mean Temperature 68 °F 64 °F  
Max Temperature 78 °F 75 °F 94 °F (1919)
Min Temperature 58 °F 54 °F 37 °F (1961)
Degree Days  
Heating Degree Days 0 3  
Month to date heating degree days 150 193  
Since 1 July heating degree days 6008 5669  
Cooling Degree Days 3 2  
Month to date cooling degree days 62 40  
Year to date cooling degree days 72 50  
Growing Degree Days 18 (Base 50)    
Moisture  
Dew Point 53 °F    
Average Humidity 63    
Maximum Humidity 90    
Minimum Humidity 36    
Precipitation  
Precipitation T in 0.14 in 1.66 in (1940)
Month to date precipitation 4.32 3.80  
Year to date precipitation 15.09 14.95  
Snow  
Snow 0.00 in 0.00 in 0.00 in (2002)
Month to date snowfall 0.0 0.0  
Since 1 July snowfall 63.4 41.9  
Snow Depth 0.00 in    
Sea Level Pressure  
Sea Level Pressure 30.14 in    
Wind  
Wind Speed 6 mph (NNE)    
Max Wind Speed 12 mph    
Max Gust Speed 16 mph    
Visibility 9 miles    
Events Rain    
T = Trace of Precipitation, MM = Missing Value Source: NWS Daily Summary

Daily Weather History Graph

Daily Weather History Graph

Search for Another Location

Airport or City:

Astronomy

May. 30, 2014 Rise Set
Actual Time 5:53 AM EDT 8:43 PM EDT
Civil Twilight 5:21 AM EDT 9:16 PM EDT
Nautical Twilight 4:40 AM EDT 9:56 PM EDT
Astronomical Twilight 3:53 AM EDT 10:43 PM EDT
Moon 7:36 AM EDT (5/30) 10:19 PM EDT (5/30)
Length of Visible Light 15h 54m
Length of Day
14h 50m
Waxing Crescent, 4% of the Moon is Illuminated
May 30
Waxing Crescent
Jun 5
First Quarter
Jun 13
Full
Jun 19
Last Quarter
Jun 27
New

Hourly Weather History & Observations

Time (EDT) Temp. Dew Point Humidity Pressure Visibility Wind Dir Wind Speed Gust Speed Precip Events Conditions
12:51 AM 60.1 °F 52.0 °F 75% 30.11 in 10.0 mi North 9.2 mph - N/A   Clear
1:30 AM 60.1 °F 52.0 °F 75% 30.10 in 10.0 mi North 5.8 mph - N/A   Mostly Cloudy
1:51 AM 60.1 °F 52.0 °F 75% 30.10 in 10.0 mi North 5.8 mph - N/A   Overcast
2:29 AM 60.1 °F 54.0 °F 80% 30.10 in 10.0 mi NNE 8.1 mph - N/A   Overcast
2:51 AM 61.0 °F 55.9 °F 83% 30.11 in 10.0 mi Variable 3.5 mph - N/A   Overcast
3:51 AM 61.0 °F 57.0 °F 87% 30.10 in 8.0 mi NE 4.6 mph - N/A   Overcast
4:51 AM 60.1 °F 57.0 °F 90% 30.11 in 9.0 mi NE 5.8 mph - N/A   Overcast
5:51 AM 60.1 °F 55.9 °F 86% 30.11 in 9.0 mi NNE 5.8 mph - N/A   Overcast
6:13 AM 60.1 °F 55.9 °F 86% 30.10 in 9.0 mi NNE 4.6 mph - N/A   Overcast
6:41 AM 60.1 °F 55.9 °F 86% 30.12 in 8.0 mi NNE 5.8 mph - N/A   Mostly Cloudy
6:51 AM 60.1 °F 55.9 °F 86% 30.13 in 8.0 mi Variable 4.6 mph - N/A   Mostly Cloudy
7:51 AM 59.0 °F 55.9 °F 90% 30.15 in 5.0 mi ENE 6.9 mph - 0.00 in   Light Drizzle
8:51 AM 59.0 °F 55.0 °F 87% 30.17 in 8.0 mi ENE 8.1 mph - 0.00 in   Overcast
9:51 AM 62.1 °F 55.0 °F 78% 30.19 in 9.0 mi ENE 5.8 mph - N/A   Overcast
10:51 AM 64.9 °F 55.0 °F 70% 30.19 in 10.0 mi NNE 4.6 mph - N/A   Mostly Cloudy
11:18 AM 66.9 °F 55.9 °F 68% 30.18 in 10.0 mi Variable 5.8 mph - N/A   Scattered Clouds
11:51 AM 68.0 °F 54.0 °F 61% 30.19 in 10.0 mi Calm Calm - N/A   Scattered Clouds
12:51 PM 72.0 °F 50.0 °F 46% 30.19 in 10.0 mi ENE 6.9 mph - N/A   Scattered Clouds
1:51 PM 73.0 °F 48.9 °F 42% 30.17 in 10.0 mi East 4.6 mph - N/A   Scattered Clouds
2:51 PM 75.0 °F 50.0 °F 41% 30.17 in 10.0 mi Variable 4.6 mph - N/A   Scattered Clouds
3:51 PM 75.9 °F 48.0 °F 37% 30.17 in 10.0 mi Variable 3.5 mph - N/A   Mostly Cloudy
4:51 PM 75.9 °F 48.0 °F 37% 30.15 in 10.0 mi Variable 4.6 mph - N/A   Scattered Clouds
5:51 PM 77.0 °F 48.0 °F 36% 30.13 in 10.0 mi NNE 6.9 mph - N/A   Scattered Clouds
6:51 PM 75.2 °F 50.0 °F 41% 30.11 in 10.0 mi North 8.1 mph - N/A   Mostly Cloudy
7:51 PM 75.0 °F 50.0 °F 41% 30.13 in 10.0 mi NNW 8.1 mph - N/A   Overcast
8:51 PM 73.0 °F 51.1 °F 46% 30.14 in 10.0 mi North 8.1 mph - N/A   Scattered Clouds
9:51 PM 71.1 °F 51.1 °F 49% 30.16 in 10.0 mi North 10.4 mph - N/A   Scattered Clouds
10:51 PM 69.1 °F 51.1 °F 53% 30.18 in 10.0 mi North 9.2 mph - N/A   Scattered Clouds
11:51 PM 66.9 °F 50.0 °F 54% 30.19 in 10.0 mi North 4.6 mph - N/A   Scattered Clouds